This demonstration page uses our WeatherBlox Daily Observations layout. Learn more.

39.92423, -83.80882

Hourly Observations for July 27, 2018

Temp ( °F °C ) Dew Point ( °F °C ) Humidity (%) Winds ( mph kmh ) Pressure ( in mb ) Visibility ( mi km ) Precip ( " mm )
12:56 am 00:56 Clear 67 19.4 67 19.4 100 100 W 5 7 29.96 1015 10 16.0934 0 0
1:56 am 01:56 Clear 67 19.4 67 19.4 100 100 W 5 7 29.96 1015 10 16.0934 0 0
2:56 am 02:56 Clear 65 18.3 65 18.3 100 100 W 7 11 29.97 1015 10 16.0934 0 0
3:56 am 03:56 Clear 64 17.8 63 17.2 96 96 W 5 7 29.97 1015 10 16.0934 0 0
4:56 am 04:56 Clear 61 16.1 61 16.1 100 100 W 6 9 29.96 1015 10 16.0934 0 0
5:56 am 05:56 Clear 61 16.1 61 16.1 100 100 W 3 6 29.97 1015 10 16.0934 0 0
6:56 am 06:56 Sunny 60 15.6 60 15.6 100 100 W 5 7 29.98 1015 10 16.0934 0.01 0.254
7:56 am 07:56 Sunny 64 17.8 62 16.7 93 93 Calm 29.99 1016 10 16.0934 0 0
8:56 am 08:56 Sunny 68 20 62 16.7 81 81 W 6 9 30.01 1016 10 16.0934 0 0
9:56 am 09:56 Sunny 72 22.2 63 17.2 73 73 W 7 11 30.02 1017 10 16.0934 0 0
10:56 am 10:56 Sunny 74 23.3 62 16.7 67 67 WNW 9 15 30.03 1017 10 16.0934 0 0
11:56 am 11:56 Sunny 75 23.9 61 16.1 62 62 WNW 13 20 30.03 1017 10 16.0934 0 0
12:56 pm 12:56 Sunny 75 23.9 60 15.6 60 60 W 13 20 30.04 1017 10 16.0934 0 0
1:56 pm 13:56 Sunny 78 25.6 61 16.1 56 56 WNW 15 24 30.02 1017 10 16.0934 0 0
2:56 pm 14:56 Sunny 78 25.6 61 16.1 56 56 W 16 26 30.03 1017 10 16.0934 0 0
3:56 pm 15:56 Sunny 76 24.4 59 15 56 56 WNW 15 24 30.03 1017 10 16.0934 0 0
4:56 pm 16:56 Sunny 78 25.6 58 14.4 50 50 WNW 16 26 30.03 1017 10 16.0934 0 0
6:56 pm 18:56 Sunny 76 24.4 58 14.4 54 54 NW 12 19 30.04 1017 10 16.0934 0 0
7:56 pm 19:56 Sunny 73 22.8 59 15 62 62 NW 7 11 30.05 1018 10 16.0934 0 0
8:56 pm 20:56 Clear 69 20.6 60 15.6 73 73 W 3 6 30.06 1018 10 16.0934 0 0
9:56 pm 21:56 Clear 65 18.3 59 15 81 81 WSW 5 7 30.08 1019 10 16.0934 0 0
10:56 pm 22:56 Clear 64 17.8 59 15 84 84 W 5 7 30.08 1019 10 16.0934 0 0
11:56 pm 23:56 Clear 62 16.7 59 15 90 90 W 6 9 30.09 1019 10 16.0934 0 0

Powered by AerisWeather